Regional Weather Roundup
Issued by NWS

Home | Current Version | Previous Version | Graphics & Text | Print | Product List | Glossary On
Versions: 1 2 3 4 5 6 7 8 9 10 11 12 13 14 15 16 17 18 19 20 21 22 23 24 25 26 27 28 29 30 31 32 33 34 35 36 37 38 39 40 41 42 43 44 45 46 47 48 49 50
000
ASUS45 KBOU 011610
RWRCO

WEATHER ROUNDUP FOR COLORADO
NATIONAL WEATHER SERVICE DENVER/BOULDER CO
1000 AM MDT WED JUL 01 2015

NOTE: "FAIR" INDICATES FEW OR NO CLOUDS BELOW 12000 FEET WITH NO
SIGNIFICANT WEATHER AND/OR OBSTRUCTIONS TO VISIBILITY.

COZ001>005-013-030-031-011700-
...NORTHWEST COLORADO...

CITY           SKY/WX    TMP DP  RH WIND       PRES   REMARKS
CRAIG          MOSUNNY   72  52  49 CALM      30.24F
HAYDEN         MOSUNNY   72  46  40 NE5       30.26F
MEEKER         PTSUNNY   70  51  51 S5        30.25F
MOUNT WERNER   NOT AVBL
STEAMBOAT SPGS MOSUNNY   71  50  48 SW3       30.28F
WALDEN         SUNNY     63  50  63 CALM      30.38F
$$

COZ006>008-011-011700-
...WEST CENTRAL VALLEYS...

CITY           SKY/WX    TMP DP  RH WIND       PRES   REMARKS
GRAND JUNCTION PTSUNNY   83  45  26 SE12      30.11S
MONTROSE       PTSUNNY   79  48  33 CALM      30.19F
EAGLE          MOSUNNY   70  48  46 CALM      30.30F
RIFLE          MOSUNNY   78  48  34 VRB5      30.17F
DELTA          PTSUNNY   82  45  27 E3        30.15F
NUCLA          PTSUNNY   79  45  29 CALM      30.23S
$$

COZ017>023-064>068-011700-
...SOUTHWEST COLORADO...

CITY           SKY/WX    TMP DP  RH WIND       PRES   REMARKS
DURANGO        PTSUNNY   78  48  34 E8        30.26F
CORTEZ         SUNNY     82  47  29 CALM      30.19S
PAGOSA SPRINGS PTSUNNY   71  49  45 CALM      30.35F
TELLURIDE      PTSUNNY   72  44  36 CALM      30.45F
WOLF CREEK PAS NOT AVBL
$$

COZ009-010-012-014-032>034-037-058>063-011700-
...CENTRAL COLORADO...

CITY           SKY/WX    TMP DP  RH WIND       PRES   REMARKS
ASPEN          SUNNY     74  47  38 N5        30.33F
BUENA VISTA    MOSUNNY   69  49  48 E3        30.36F
COPPER MTN     SUNNY     61  37  41 W9        30.69S
BERTHOUD PASS  FAIR      52  43  71 MISG      30.74S
COTTONWOOD PAS NOT AVBL
GUNNISON       PTSUNNY   68  48  49 NW3       30.38F
KREMMLING      SUNNY     70  45  40 CALM      30.36F
LEADVILLE      SUNNY     66  40  38 CALM      30.49F
MONARCH PASS   MOSUNNY   55  41  58 SW9       30.78F
SALIDA         MOSUNNY   72  50  45 CALM      30.39F
SUNLIGHT       MOSUNNY   68  37  32 NE5       30.61S
WILKERSON PASS MOSUNNY   63  41  45 S5        30.64F
$$

COZ069>075-011700-
...SAN LUIS VALLEY/SANGRE DE CRISTO MOUNTAINS...

CITY           SKY/WX    TMP DP  RH WIND       PRES   REMARKS
ALAMOSA        PTSUNNY   72  50  45 VRB6      30.34F
LA VETA PASS   PTSUNNY   63  45  51 MISG      30.53R
SAGUACHE       MOSUNNY   70  48  46 W5        30.38F
$$

COZ035-036-038>040-011700-
...NORTHERN COLORADO FRONT RANGE...

CITY           SKY/WX    TMP DP  RH WIND       PRES   REMARKS
DENVER INTL AP MOSUNNY   82  54  37 NE9       30.16F
DMNS CITY PARK   N/A     83  51  33 E5G20     30.17S
AURORA         MOSUNNY   78  55  44 N7        30.20R
FRONT RANGE AP MOSUNNY   81  55  41 N7        30.18S
ERIE MUNI ARPT SUNNY     81  50  33 CALM      30.15S
BOULDER MUN AP SUNNY     81  48  32 NE5       30.16S
CENTENNIAL     MOSUNNY   77  54  44 N6        30.21R
BROOMFIELD     MOSUNNY   81  50  34 N6        30.19S
FORT COLLINS   SUNNY     81  57  44 N7        30.14F
LONGMONT       PTSUNNY   85  51  30 N3        30.16R
$$

COZ041-046-047-076>085-087-088-011700-
...PIKES PEAK/PALMER DIVIDE AND SOUTHERN FOOTHILLS...

CITY           SKY/WX    TMP DP  RH WIND       PRES   REMARKS
COLO. SPRINGS  PTSUNNY   81  49  32 N14       30.22R
A. F. ACADEMY  MOSUNNY   78  46  32 N20       30.23S
ELLICOTT       MOSUNNY  N/A N/A N/A NE14      30.21R
FALCON         MOSUNNY   78  47  33 N13G20    30.28R
FORT CARSON    MOSUNNY   81  55  39 NE10      30.19R
LIMON          MOSUNNY   79  56  45 N9        30.16R
MONUMENT HILL  MOSUNNY   73  50  43 N12       30.30S
TRINIDAD       SUNNY     81  49  32 E9        30.17S
$$

COZ042>045-048>051-090-091-011700-
...NORTHEAST COLORADO...

CITY           SKY/WX    TMP DP  RH WIND       PRES   REMARKS
GREELEY ARPT   SUNNY     82  57  42 NE8       30.12S
AKRON          SUNNY     80  58  46 N9        30.10R
BURLINGTON     MOSUNNY   83  56  39 N15       30.05R
WRAY           SUNNY     88  56  34 N3        30.01S
STERLING       SUNNY     84  61  45 NW6         N/A
HOLYOKE        SUNNY     95  55  26 N13       30.00F
FORT MORGAN    SUNNY     83  55  38 N3        30.10F
$$

COZ086-089-092>099-011700-
...SOUTHEAST COLORADO...

CITY           SKY/WX    TMP DP  RH WIND       PRES   REMARKS
PUEBLO         SUNNY     85  54  34 VRB6      30.10R
LA JUNTA       MOSUNNY   87  55  33 NE8       30.06S
LAMAR          MOSUNNY   87  59  38 VRB5      30.00F
SPRINGFIELD      N/A     86  51  29 N12G21    30.06R
$$


USA.gov is the U.S. government's official web portal to all federal, state and local government web resources and services.